sat.trackr.live / text

‹ back to catalog

STARLINK-30103

NORAD 56290 · 2023-056E

PAYLOAD ACTIVE UNKNOWN

§ Identity

Operator
Country
US
Launch date
2023-04-19
Launch site
AFETR
Launch vehicle
Mass (kg)
RCS (m²)

Purposes: comms

External: N2YO · Heavens-Above · Gunter

§ Orbital elements

Epoch: 2026-05-25T00:31:06.957984Z

Period
94.27 min
Inclination
43.0028°
Eccentricity
0.0001254
Mean motion
15.27563518 rev/d
Perigee alt
482.2 km
Apogee alt
484.0 km
Semi-major
6,861.2 km
B*
1.1691e-4
RAAN
137.8643°
Arg perigee
271.1675°
Mean anomaly
88.9033°
Rev number
17,171

§ Raw data

STARLINK-301031 56290U 23056E   26145.02160831  .00002955  00000+0  11691-3 0  99982 56290  43.0028 137.8643 0001254 271.1675  88.9033 15.27563518171715

JSON: /api/v1/satellites/56290 · /tle

For live sub-satellite position, see the globe view (requires WebGL).

§ Visibility from observer

Set your observer location to see the next 7 days of passes ≥ 10°. The values pass through the URL so the page stays shareable.

No JS? Fill the form by hand. The geolocation button needs JavaScript.